When you browse on this site, cookies collect data to enhance your experience and personalize the content and advertising you see.
Visit our Privacy Policy to learn more. By continuing to use the site, you agree to this use of cookies and data.
  • In Hungary
  • List of Countries
  • For 7 days
  • Water Temperature
  • Weather Map
  • News
  • Weather Widgets
  • user-avatar
    Login

    Hourly Weather Malynivka

    Today, 2 April, Thursday

    Time Temperature Precipitation Wind Pressure Humidity
    00:00 -1°C° 0 mm 3 mps 734 mmHg 60%
    01:00 -1°C° 0 mm 3 mps 734 mmHg 60%
    02:00 -1°C° 0 mm 3 mps 734 mmHg 60%
    03:00 -2°C° 0 mm 3 mps 734 mmHg 58%
    04:00 -2°C° 0 mm 3 mps 734 mmHg 55%
    05:00 -2°C° 0 mm 3 mps 733 mmHg 53%
    06:00 0°C° 0 mm 3 mps 733 mmHg 48%
    07:00 0°C° 0 mm 4 mps 734 mmHg 43%
    08:00 +1°C° 0 mm 4 mps 734 mmHg 38%
    09:00 +4°C° 0 mm 4 mps 733 mmHg 37%
    10:00 +5°C° 0 mm 4 mps 733 mmHg 36%
    11:00 +7°C° 0 mm 5 mps 733 mmHg 34%
    12:00 +7°C° 0 mm 5 mps 733 mmHg 34%
    13:00 +8°C° 0 mm 5 mps 733 mmHg 33%
    14:00 +8°C° 0 mm 5 mps 733 mmHg 33%
    15:00 +8°C° 0 mm 5 mps 732 mmHg 33%
    16:00 +8°C° 0 mm 4 mps 732 mmHg 34%
    17:00 +8°C° 0 mm 4 mps 731 mmHg 35%
    18:00 +7°C° 0 mm 3 mps 731 mmHg 39%
    19:00 +5°C° 0 mm 3 mps 731 mmHg 43%
    20:00 +5°C° 0 mm 2 mps 731 mmHg 47%
    21:00 +4°C° 0 mm 2 mps 731 mmHg 47%
    22:00 +4°C° 0 mm 2 mps 731 mmHg 47%
    23:00 +2°C° 0 mm 3 mps 731 mmHg 47%

    Tomorrow, 3 April, Friday

    Time Temperature Precipitation Wind Pressure Humidity
    00:00 +2°C° 0 mm 3 mps 731 mmHg 48%
    01:00 +1°C° 0 mm 3 mps 731 mmHg 49%
    02:00 +1°C° 0 mm 3 mps 731 mmHg 50%
    03:00 +1°C° 0 mm 3 mps 731 mmHg 53%
    04:00 0°C° 0 mm 3 mps 730 mmHg 55%
    05:00 0°C° 0 mm 3 mps 730 mmHg 58%
    06:00 +1°C° 0 mm 3 mps 730 mmHg 56%
    07:00 +1°C° 0 mm 4 mps 730 mmHg 54%
    08:00 +3°C° 0 mm 4 mps 731 mmHg 52%
    09:00 +5°C° 0 mm 4 mps 730 mmHg 49%
    10:00 +6°C° 0 mm 4 mps 730 mmHg 46%
    11:00 +8°C° 0 mm 4 mps 730 mmHg 43%
    12:00 +10°C° 0 mm 4 mps 730 mmHg 40%
    13:00 +10°C° 0 mm 4 mps 730 mmHg 36%
    14:00 +11°C° 0 mm 4 mps 730 mmHg 33%
    15:00 +11°C° 0 mm 4 mps 730 mmHg 34%
    16:00 +11°C° 0 mm 4 mps 730 mmHg 35%
    17:00 +11°C° 0 mm 4 mps 730 mmHg 36%
    18:00 +10°C° 0 mm 3 mps 730 mmHg 42%
    19:00 +8°C° 0 mm 3 mps 731 mmHg 48%
    20:00 +7°C° 0 mm 2 mps 731 mmHg 55%
    21:00 +6°C° 0 mm 2 mps 732 mmHg 59%
    22:00 +6°C° 0 mm 2 mps 732 mmHg 63%
    23:00 +5°C° 0 mm 2 mps 733 mmHg 67%

    Day after tomorrow, 4 April, Saturday

    Time Temperature Precipitation Wind Pressure Humidity
    00:00 +5°C° 0 mm 2 mps 733 mmHg 70%
    01:00 +5°C° 0 mm 2 mps 734 mmHg 73%
    02:00 +4°C° 0 mm 2 mps 734 mmHg 76%
    03:00 +4°C° 0 mm 2 mps 734 mmHg 78%
    04:00 +3°C° 0 mm 2 mps 735 mmHg 80%
    05:00 +3°C° 0 mm 2 mps 735 mmHg 82%
    06:00 +4°C° 0 mm 2 mps 736 mmHg 76%
    07:00 +4°C° 0 mm 3 mps 736 mmHg 70%
    08:00 +5°C° 0 mm 3 mps 737 mmHg 64%
    09:00 +5°C° 0 mm 3 mps 737 mmHg 58%
    10:00 +7°C° 0 mm 3 mps 738 mmHg 53%
    11:00 +8°C° 0 mm 3 mps 738 mmHg 47%
    12:00 +9°C° 0 mm 3 mps 738 mmHg 45%
    13:00 +8°C° 0 mm 4 mps 739 mmHg 43%
    14:00 +8°C° 0 mm 4 mps 739 mmHg 41%
    15:00 +8°C° 0 mm 4 mps 739 mmHg 40%
    16:00 +8°C° 0 mm 5 mps 739 mmHg 40%
    17:00 +7°C° 0 mm 5 mps 739 mmHg 39%
    18:00 +6°C° 0 mm 4 mps 739 mmHg 42%
    19:00 +5°C° 0 mm 3 mps 740 mmHg 46%
    20:00 +3°C° 0 mm 3 mps 741 mmHg 49%
    21:00 +3°C° 0 mm 3 mps 741 mmHg 51%
    22:00 +2°C° 0 mm 3 mps 742 mmHg 54%
    23:00 +2°C° 0 mm 3 mps 742 mmHg 56%

    5 April, Sunday

    Time Temperature Precipitation Wind Pressure Humidity
    00:00 +1°C° 0 mm 3 mps 742 mmHg 59%
    01:00 +1°C° 0 mm 3 mps 743 mmHg 63%
    02:00 -1°C° 0 mm 4 mps 743 mmHg 66%
    03:00 -1°C° 0 mm 4 mps 743 mmHg 68%
    04:00 -2°C° 0 mm 4 mps 744 mmHg 70%
    05:00 -2°C° 0 mm 4 mps 744 mmHg 73%
    06:00 -1°C° 0 mm 5 mps 745 mmHg 65%
    07:00 -2°C° 0 mm 6 mps 745 mmHg 57%
    08:00 -1°C° 0 mm 7 mps 746 mmHg 50%
    09:00 +1°C° 0 mm 6 mps 746 mmHg 47%
    10:00 +2°C° 0 mm 6 mps 747 mmHg 45%
    11:00 +3°C° 0 mm 6 mps 747 mmHg 42%
    12:00 +3°C° 0 mm 6 mps 747 mmHg 38%
    13:00 +4°C° 0 mm 6 mps 747 mmHg 34%
    14:00 +4°C° 0 mm 6 mps 747 mmHg 30%
    15:00 +5°C° 0 mm 5 mps 747 mmHg 31%
    16:00 +5°C° 0 mm 5 mps 747 mmHg 31%
    17:00 +5°C° 0 mm 5 mps 748 mmHg 32%
    18:00 +4°C° 0 mm 4 mps 748 mmHg 37%
    19:00 +3°C° 0 mm 3 mps 748 mmHg 41%
    20:00 +2°C° 0 mm 2 mps 749 mmHg 46%
    21:00 +2°C° 0 mm 2 mps 749 mmHg 47%
    22:00 +1°C° 0 mm 2 mps 750 mmHg 48%
    23:00 +1°C° 0 mm 2 mps 750 mmHg 49%

    6 April, Monday

    Time Temperature Precipitation Wind Pressure Humidity
    00:00 +1°C° 0 mm 1 mps 750 mmHg 49%
    01:00 +1°C° 0 mm 1 mps 750 mmHg 50%
    02:00 +1°C° 0 mm 1 mps 751 mmHg 50%
    03:00 -1°C° 0 mm 0 mps 751 mmHg 49%
    04:00 -1°C° 0 mm 0 mps 751 mmHg 49%
    05:00 -1°C° 0 mm 0 mps 751 mmHg 48%
    06:00 +1°C° 0 mm 0 mps 751 mmHg 44%
    07:00 +3°C° 0 mm 1 mps 752 mmHg 41%
    08:00 +5°C° 0 mm 1 mps 752 mmHg 37%
    09:00 +6°C° 0 mm 1 mps 752 mmHg 34%
    10:00 +7°C° 0 mm 1 mps 752 mmHg 31%
    11:00 +8°C° 0 mm 2 mps 752 mmHg 28%
    12:00 +8°C° 0 mm 2 mps 752 mmHg 27%
    13:00 +9°C° 0 mm 2 mps 752 mmHg 26%
    14:00 +10°C° 0 mm 2 mps 752 mmHg 25%
    15:00 +10°C° 0 mm 2 mps 751 mmHg 26%
    16:00 +11°C° 0 mm 1 mps 751 mmHg 27%
    17:00 +11°C° 0 mm 1 mps 751 mmHg 27%
    18:00 +10°C° 0 mm 1 mps 751 mmHg 31%
    19:00 +8°C° 0 mm 1 mps 751 mmHg 35%
    20:00 +7°C° 0 mm 1 mps 750 mmHg 39%
    21:00 +6°C° 0 mm 1 mps 750 mmHg 40%
    22:00 +5°C° 0 mm 2 mps 750 mmHg 42%
    23:00 +4°C° 0 mm 2 mps 750 mmHg 43%

    7 April, Tuesday

    Time Temperature Precipitation Wind Pressure Humidity
    00:00 +4°C° 0 mm 2 mps 750 mmHg 44%
    01:00 +3°C° 0 mm 2 mps 750 mmHg 44%
    02:00 +3°C° 0 mm 2 mps 750 mmHg 45%
    03:00 +3°C° 0 mm 2 mps 750 mmHg 46%
    04:00 +2°C° 0 mm 2 mps 750 mmHg 46%
    05:00 +2°C° 0 mm 2 mps 750 mmHg 47%
    06:00 +4°C° 0 mm 2 mps 750 mmHg 45%
    07:00 +4°C° 0 mm 3 mps 750 mmHg 43%
    08:00 +7°C° 0 mm 3 mps 750 mmHg 41%
    09:00 +8°C° 0 mm 3 mps 750 mmHg 37%
    10:00 +10°C° 0 mm 3 mps 749 mmHg 34%
    11:00 +12°C° 0 mm 4 mps 749 mmHg 30%
    12:00 +13°C° 0 mm 4 mps 749 mmHg 29%
    13:00 +14°C° 0 mm 4 mps 749 mmHg 28%
    14:00 +15°C° 0 mm 4 mps 748 mmHg 27%
    15:00 +15°C° 0 mm 4 mps 748 mmHg 28%
    16:00 +15°C° 0 mm 4 mps 747 mmHg 29%
    17:00 +15°C° 0 mm 4 mps 747 mmHg 30%
    18:00 +13°C° 0 mm 3 mps 746 mmHg 34%
    19:00 +11°C° 0 mm 3 mps 746 mmHg 38%
    20:00 +9°C° 0 mm 3 mps 746 mmHg 41%
    21:00 +9°C° 0 mm 3 mps 746 mmHg 44%
    22:00 +8°C° 0 mm 3 mps 746 mmHg 46%
    23:00 +7°C° 0 mm 3 mps 746 mmHg 48%
    Show more